CW7858 Weather Reports


Display with metric or nautical units.
time (UTC)temp
F
wind
direction
speed
MPH
gust
MPH
rain 1hr
in
rain 24hr
in
rain mn
in
humidity
%
barometer
mb
20180421190244 66 88 8.0 15.0 0.00 0.00 0.00 51 1014.9
20180421185236 67 65 7.0 13.0 0.00 0.00 0.00 51 1015.0
20180421184230 67 113 7.0 13.0 0.00 0.00 0.00 50 1014.8
20180421183240 67 100 12.0 18.0 0.00 0.00 0.00 50 1014.8
20180421182230 67 62 10.0 16.0 0.00 0.00 0.00 49 1014.7
20180421181240 67 99 9.0 16.0 0.00 0.00 0.00 48 1014.7
20180421180238 68 75 8.0 17.0 0.00 0.00 0.00 47 1014.7
20180421175248 68 72 7.0 14.0 0.00 0.00 0.00 47 1014.5
20180421174239 68 202 5.0 17.0 0.00 0.00 0.00 47 1014.5
20180421173247 69 23 8.0 17.0 0.00 0.00 0.00 47 1014.5
20180421172236 69 13 6.0 20.0 0.00 0.00 0.00 47 1014.4
20180421171246 69 52 11.0 20.0 0.00 0.00 0.00 46 1014.0
20180421170240 70 88 6.0 19.0 0.00 0.00 0.00 46 1014.0
20180421165249 70 82 4.0 18.0 0.00 0.00 0.00 45 1014.1
20180421164239 71 68 6.0 18.0 0.00 0.00 0.00 44 1014.2
20180421163247 71 83 4.0 19.0 0.00 0.00 0.00 44 1014.2
20180421162237 71 88 14.0 20.0 0.00 0.00 0.00 43 1014.0
20180421161232 71 68 14.0 25.0 0.00 0.00 0.00 42 1014.0
20180421160242 72 7 5.0 20.0 0.00 0.00 0.00 42 1014.0
20180421155233 72 86 7.0 17.0 0.00 0.00 0.00 42 1014.1
20180421154244 72 52 4.0 14.0 0.00 0.00 0.00 41 1014.2
20180421153234 72 65 8.0 19.0 0.00 0.00 0.00 41 1014.2
20180421152243 72 140 11.0 20.0 0.00 0.00 0.00 41 1014.1
20180421151236 72 99 10.0 18.0 0.00 0.00 0.00 41 1014.2
20180421150246 72 27 6.0 21.0 0.00 0.00 0.00 41 1014.2
20180421145237 72 76 9.0 18.0 0.00 0.00 0.00 41 1014.2
20180421144246 72 80 4.0 20.0 0.00 0.00 0.00 41 1014.4
20180421143234 72 64 10.0 19.0 0.00 0.00 0.00 41 1014.4
20180421142249 72 103 8.0 22.0 0.00 0.00 0.00 41 1014.5
20180421141239 73 35 4.0 17.0 0.00 0.00 0.00 41 1014.8
20180421140253 73 72 7.0 18.0 0.00 0.00 0.00 41 1014.8
20180421135237 73 90 14.0 18.0 0.00 0.00 0.00 41 1015.0
20180421134248 72 40 8.0 21.0 0.00 0.00 0.00 41 1015.0
20180421133242 73 100 6.0 18.0 0.00 0.00 0.00 41 1015.0
20180421132232 73 104 4.0 19.0 0.00 0.00 0.00 41 1015.0
20180421131242 73 73 8.0 17.0 0.00 0.00 0.00 41 1015.0
20180421130232 73 86 9.0 17.0 0.00 0.00 0.00 40 1015.0
20180421125241 74 360 4.0 12.0 0.00 0.00 0.00 40 1015.2
20180421124235 72 71 7.0 20.0 0.00 0.00 0.00 42 1015.5
20180421123245 72 104 10.0 17.0 0.00 0.00 0.00 42 1015.5
20180421122234 71 185 8.0 16.0 0.00 0.00 0.00 43 1015.5
20180421121245 71 110 7.0 16.0 0.00 0.00 0.00 44 1015.7
20180421120235 71 76 6.0 16.0 0.00 0.00 0.00 45 1015.7
20180421115248 71 121 10.0 16.0 0.00 0.00 0.00 45 1015.8
20180421114240 71 83 3.0 12.0 0.00 0.00 0.00 47 1016.1
20180421113243 70 88 7.0 12.0 0.00 0.00 0.00 48 1016.1
20180421112233 70 42 7.0 11.0 0.00 0.00 0.00 49 1016.4
20180421111244 69 112 2.0 14.0 0.00 0.00 0.00 50 1016.6
20180421110238 68 10 9.0 14.0 0.00 0.00 0.00 53 1016.6
20180421105231 67 16 5.0 13.0 0.00 0.00 0.00 53 1016.6
20180421104241 67 75 6.0 8.0 0.00 0.00 0.00 54 1016.7
20180421103230 67 75 4.0 8.0 0.00 0.00 0.00 54 1016.7
20180421102241 67 61 3.0 7.0 0.00 0.00 0.00 54 1016.9
20180421101232 66 30 1.0 10.0 0.00 0.00 0.00 56 1017.0
20180421100245 66 86 2.0 8.0 0.00 0.00 0.00 56 1017.0
20180421095248 66 10 2.0 3.0 0.00 0.00 0.00 56 1016.9
20180421094239 65 232 1.0 2.0 0.00 0.00 0.00 58 1017.0
20180421093238 64 188 3.0 5.0 0.00 0.00 0.00 59 1017.0
20180421092247 64 234 0.0 3.0 0.00 0.00 0.00 63 1017.1
20180421091240 62 178 1.0 3.0 0.00 0.00 0.00 64 1017.2
20180421090230 62 217 1.0 3.0 0.00 0.00 0.00 65 1017.2
20180421085241 61 213 2.0 6.0 0.00 0.00 0.00 67 1017.2
20180421084248 61 227 2.0 5.0 0.00 0.00 0.00 67 1017.1
20180421083237 60 165 2.0 3.0 0.00 0.00 0.00 68 1017.1
20180421082236 60 241 1.0 2.0 0.00 0.00 0.00 69 1017.0
20180421081245 59 189 0.0 2.0 0.00 0.00 0.00 70 1017.0
20180421080237 59 189 1.0 3.0 0.00 0.00 0.00 71 1017.0
20180421075247 58 205 1.0 6.0 0.00 0.00 0.00 71 1017.2
20180421074238 58 227 4.0 7.0 0.00 0.00 0.00 72 1017.1
20180421073231 58 272 2.0 5.0 0.00 0.00 0.00 72 1017.1
20180421072243 58 243 2.0 4.0 0.00 0.00 0.00 72 1016.9
20180421071233 57 253 2.0 5.0 0.00 0.00 0.00 73 1016.8
20180421070244 57 210 2.0 5.0 0.00 0.00 0.00 73 1016.8
20180421065234 57 209 1.0 3.0 0.00 0.00 0.00 73 1016.7
20180421064246 57 230 1.0 6.0 0.00 0.00 0.00 73 1016.8
20180421063237 57 268 4.0 6.0 0.00 0.00 0.00 73 1016.8
20180421062246 57 182 3.0 6.0 0.00 0.00 0.00 74 1016.6
20180421061237 57 206 2.0 5.0 0.00 0.00 0.00 73 1016.3
20180421060251 57 230 1.0 3.0 0.00 0.00 0.00 74 1016.3
20180421055240 56 198 0.0 0.0 0.00 0.00 0.00 75 1016.1
20180421054231 56 198 0.0 2.0 0.00 0.00 0.00 75 1016.2
20180421053240 56 205 1.0 2.0 0.00 0.00 0.00 76 1016.2
20180421052249 55 215 1.0 4.0 0.00 0.00 0.00 76 1016.2
20180421051237 55 247 2.0 5.0 0.00 0.00 0.00 76 1016.0
20180421050234 55 282 4.0 6.0 0.00 0.00 0.00 76 1016.0
20180421045242 55 222 3.0 7.0 0.00 0.00 0.00 75 1015.8
20180421044232 56 215 5.0 10.0 0.00 0.00 0.00 74 1015.2
20180421043240 56 141 2.0 6.0 0.00 0.00 0.00 74 1015.2
20180421042249 56 213 1.0 3.0 0.00 0.00 0.00 74 1015.1
20180421041240 56 209 1.0 3.0 0.00 0.00 0.00 74 1015.6
20180421040233 56 193 1.0 2.0 0.00 0.00 0.00 74 1015.6
20180421035245 56 215 1.0 2.0 0.00 0.00 0.00 74 1015.5
20180421034234 56 193 1.0 2.0 0.00 0.00 0.00 74 1016.0
20180421033244 56 182 2.0 3.0 0.00 0.00 0.00 74 1016.0
20180421032234 57 210 0.0 1.0 0.00 0.00 0.00 74 1015.9
20180421031249 57 210 1.0 3.0 0.00 0.00 0.00 75 1016.1
20180421030238 57 236 3.0 5.0 0.00 0.00 0.00 74 1016.1
20180421025248 57 215 2.0 3.0 0.00 0.00 0.00 73 1016.1
20180421024238 57 232 1.0 3.0 0.00 0.00 0.00 72 1016.1
20180421023247 57 192 0.0 1.0 0.00 0.00 0.00 71 1016.1
20180421022242 58 192 0.0 2.0 0.00 0.00 0.00 70 1016.3
20180421021232 58 182 1.0 2.0 0.00 0.00 0.00 70 1016.4
20180421020244 58 216 1.0 2.0 0.00 0.00 0.00 69 1016.4
20180421015249 59 247 1.0 2.0 0.00 0.00 0.00 69 1016.5
20180421014238 59 239 1.0 2.0 0.00 0.00 0.00 68 1016.7
20180421013232 59 239 1.0 3.0 0.00 0.00 0.00 68 1016.7
20180421012245 60 246 2.0 3.0 0.00 0.00 0.00 67 1016.7
20180421011234 60 301 0.0 0.0 0.00 0.00 0.00 67 1016.8
20180421010243 60 301 0.0 0.0 0.00 0.00 0.00 67 1016.8
20180421005232 60 319 0.0 0.0 0.00 0.00 0.00 67 1016.9
20180421004245 60 319 0.0 0.0 0.00 0.00 0.00 67 1017.1
20180421003235 60 319 0.0 1.0 0.00 0.00 0.00 67 1017.1
20180421002245 60 340 0.0 2.0 0.00 0.00 0.00 68 1017.2
20180421001234 60 292 1.0 3.0 0.00 0.00 0.00 68 1017.6
20180421000245 60 267 1.0 3.0 0.00 0.00 0.00 68 1017.6
20180420235239 60 244 1.0 4.0 0.00 0.00 0.00 68 1017.5
20180420234249 60 223 2.0 3.0 0.00 0.00 0.00 67 1017.1
20180420233238 61 239 1.0 3.0 0.00 0.00 0.00 67 1017.1
20180420232245 61 246 1.0 3.0 0.00 0.00 0.00 67 1017.0
20180420231236 62 251 1.0 3.0 0.00 0.00 0.00 67 1016.9
20180420230230 62 360 0.0 2.0 0.00 0.00 0.00 66 1016.9
20180420225242 62 360 0.0 1.0 0.00 0.00 0.00 66 1016.9
20180420224231 62 360 0.0 1.0 0.00 0.00 0.00 66 1017.0
20180420223239 62 360 0.0 1.0 0.00 0.00 0.00 65 1017.0
20180420222249 62 360 0.0 1.0 0.00 0.00 0.00 65 1016.9
20180420221239 62 6 0.0 2.0 0.00 0.00 0.00 64 1016.9
20180420220254 62 35 1.0 3.0 0.00 0.00 0.00 64 1016.9
20180420215237 63 30 1.0 4.0 0.00 0.00 0.00 64 1017.0
20180420214248 63 71 2.0 5.0 0.00 0.00 0.00 64 1017.0
20180420213238 63 350 1.0 6.0 0.00 0.00 0.00 63 1017.0
20180420212249 63 65 3.0 7.0 0.00 0.00 0.00 63 1016.9
20180420211243 63 80 2.0 11.0 0.00 0.00 0.00 62 1016.8
20180420210234 63 117 3.0 8.0 0.00 0.00 0.00 61 1016.8
20180420205244 63 75 4.0 7.0 0.00 0.00 0.00 61 1016.7
20180420204234 63 62 2.0 7.0 0.00 0.00 0.00 60 1016.7
20180420203245 63 66 4.0 8.0 0.00 0.00 0.00 59 1016.7
20180420202238 63 107 3.0 8.0 0.00 0.00 0.00 59 1016.6
20180420201246 63 52 6.0 8.0 0.00 0.00 0.00 58 1016.5
20180420200236 64 64 3.0 7.0 0.00 0.00 0.00 58 1016.5
20180420195247 64 56 3.0 11.0 0.00 0.00 0.00 58 1016.4
20180420194238 64 99 4.0 12.0 0.00 0.00 0.00 57 1016.3
20180420193231 64 72 1.0 10.0 0.00 0.00 0.00 57 1016.3
20180420192242 64 85 6.0 12.0 0.00 0.00 0.00 57 1016.2
20180420191231 65 113 5.0 11.0 0.00 0.00 0.00 57 1016.1